Inquirer Daily News

Weather

Get conditions and forecasts for any City, State, ZIP code or Country:  
Northeast Philadelphia, PA
on Sunday, January 20, 2013

Sunday
Previous Day Next Day
Daily Summary
 ActualAverage (KTTN)Record (KTTN)
Temperature
Mean Temperature °F 31°F  
Max Temperature 54°F 39°F 64°F (1947)
Min Temperature 30°F 23°F -5°F (1985)
Degree Days
Heating Degree Days 22 34  
Month to date heating degree days 679  
Since 1 July heating degree days 2574  
Cooling Degree Days 0 0  
Month to date cooling degree days 0  
Year to date cooling degree days 0  
Moisture
Dew Point 21°F   
Average Humidity 44    
Maximum Humidity 65    
Minimum Humidity 25    
Precipitation
Precipitation 0.00 in 0.08 in 1.05 in (1979)
Month to date precipitation 2.06  
Year to date precipitation 2.06  
Wind
Wind Speed 13 mph   
Max Wind Speed 26 mph   
Max Gust Speed 36 mph   
Visibility 10 miles   
Events     

Key: T is trace of precipitation, MM is missing value
Source: NWS Daily Summary
Time(EST)TemperatureDew PointHumidity Pressure Visibility Wind DirectionWind SpeedGust SpeedPrecipitationEvents Conditions
12:54 AM 41.0°F 28.4°F 61% 29.92 in 10.0 miles SW 8.1 mph - N/A   Clear
1:54 AM 41.0°F 28.0°F 60% 29.91 in 10.0 miles SW 9.2 mph - N/A   Clear
2:54 AM 41.0°F 28.4°F 61% 29.89 in 10.0 miles SW 9.2 mph - N/A   Clear
3:54 AM 41.0°F 28.0°F 60% 29.86 in 10.0 miles SW 6.9 mph - N/A   Clear
4:54 AM 41.0°F 28.0°F 60% 29.83 in 10.0 miles SW 12.7 mph 20.7 mph N/A   Clear
5:54 AM 41.0°F 28.0°F 60% 29.82 in 10.0 miles SW 10.4 mph - N/A   Clear
6:54 AM 39.2°F 28.4°F 65% 29.81 in 10.0 miles SSW 11.5 mph 19.6 mph N/A   Clear
7:54 AM 41.0°F 28.0°F 60% 29.81 in 10.0 miles SW 10.4 mph 16.1 mph N/A   Clear
8:54 AM 43.0°F 28.0°F 56% 29.82 in 10.0 miles SW 15.0 mph 24.2 mph N/A   Clear
9:54 AM 46.9°F 28.9°F 50% 29.83 in 10.0 miles SW 10.4 mph 17.3 mph N/A   Clear
10:54 AM 51.1°F 28.0°F 41% 29.81 in 10.0 miles SW 11.5 mph - N/A   Clear
11:54 AM 54.0°F 27.0°F 35% 29.78 in 10.0 miles West 24.2 mph 34.5 mph N/A   Clear
12:54 PM 54.0°F 28.0°F 37% 29.77 in 10.0 miles West 21.9 mph 32.2 mph N/A   Partly Cloudy
1:54 PM 54.0°F 21.0°F 28% 29.78 in 10.0 miles West 20.7 mph 33.4 mph N/A   Clear
2:54 PM 54.0°F 19.9°F 26% 29.81 in 10.0 miles West 26.5 mph 35.7 mph N/A   Clear
3:54 PM 51.1°F 16.0°F 25% 29.85 in 10.0 miles WNW 16.1 mph 24.2 mph N/A   Clear
4:54 PM 48.0°F 14.0°F 26% 29.89 in 10.0 miles NW 11.5 mph 26.5 mph N/A   Clear
5:54 PM 44.1°F 10.9°F 26% 29.93 in 10.0 miles WNW 25.3 mph 32.2 mph N/A   Clear
6:54 PM 39.9°F 14.0°F 35% 29.98 in 10.0 miles WNW 18.4 mph 25.3 mph N/A   Clear
7:54 PM 37.0°F 14.0°F 39% 30.01 in 10.0 miles NW 12.7 mph 23.0 mph N/A   Clear
8:54 PM 35.1°F 10.9°F 37% 30.04 in 10.0 miles NW 17.3 mph 23.0 mph N/A   Clear
9:54 PM 33.1°F 10.0°F 38% 30.06 in 10.0 miles WNW 11.5 mph 16.1 mph N/A   Clear
10:54 PM 32.0°F 8.1°F 37% 30.08 in 10.0 miles WNW 18.4 mph 27.6 mph N/A   Clear
11:54 PM 30.0°F 9.0°F 41% 30.09 in 10.0 miles NNW 10.4 mph - N/A   Clear
Astronomy
Sunrise:07:17 AM (EST) Moon Rise:12:04 PM (EST)
Sunset:05:05 PM (EST) Moon Set:01:47 AM (EST)
Moon Phase
Jan. 20 Jan. 26 Feb. 03 Feb. 10 Feb. 17

Copyright © 2014 The Weather Underground, Inc.